Weather in Starokutlumbetyevo

Russia / Orenburg Oblast     53°25′20″N   53°44′55″E
temp.,
°C
wind,
m/s
gust,
m/s
humid.,
%
clouds,
%
prec.,
mm/h
press.,
hPa
HPBL,
m
28 february, sun
sun2823:000ssw6998100 3.9 999461
02:00−1sw5898100 1.5 998396
05:00−1sw3598100 2.6 998246
08:00−5nw469798 0.6 999130
11:00−6nnw589594 0.7 1000258
14:00−8nnw5795100 0.0 1002266
17:00−9nnw5893100 0.1 1004328
20:00−13nnw589598 0.1 1007169
1 march, mon
mon123:00−16nnw469791 0.1 101081
02:00−17nw349788 0.0 101252
05:00−17nw349793 0.1 101466
08:00−17nnw369687 0.1 1016134
11:00−15nnw359481 0.1 1018224
14:00−14nnw349286 0.0 1019271
17:00−14nw359493 0.1 1020294
20:00−19wnw23100100 0.0 102120
2 march, tue
tue223:00−22w1210094 0.1 102120
02:00−23wsw3310053 0.0 102120
05:00−24sw3410060 0.0 101932
08:00−23ssw4610096 0.0 1017101
11:00−18s7119998 0.1 1014276
14:00−14s81295100 0.3 1011400
17:00−11ssw91494100 1.3 1009602
20:00−8ssw81595100 1.4 1006642
3 march, wed
wed323:00−5ssw81395100 2.9 1003639
02:00−4ssw71296100 1.3 1000522
05:00−5ssw5109699 2.1 999337
08:00−5sw479795 0.7 998162
11:00−4w589597 0.9 999391
14:00−3wnw5791100 0.2 1000617
17:00−3nw5789100 0.3 1002662
20:00−4nw5894100 0.1 1003386
4 march, thu
thu423:00−5nw4994100 0.2 1005282
02:00−8wnw479699 0.1 1006132
05:00−9nw479691 0.2 1007122
08:00−12nw449671 0.0 100972
11:00−10nw599362 0.1 1011263
14:00−9w579426 0.0 1012321
17:00−9wsw599560 0.0 1013379
20:00−10sw71396100 0.0 1012329